Regional Weather Roundup
Issued by NWS

Home | Current Version | Previous Version | Text Only | Print | Product List | Glossary On
Versions: 1 2 3 4 5 6 7 8 9 10 11 12 13 14 15 16 17 18 19 20 21 22 23 24 25 26 27 28 29 30 31 32 33 34 35 36 37 38 39 40 41 42 43 44 45 46 47 48 49 50
000
ASUS43 KFSD 310710
RWRSD

WEATHER ROUNDUP FOR SOUTH DAKOTA
NATIONAL WEATHER SERVICE SIOUX FALLS SD
200 AM CDT SUN AUG 31 2014

NOTE: "FAIR" INDICATES FEW OR NO CLOUDS BELOW 12,000 FEET WITH NO
SIGNIFICANT WEATHER AND/OR OBSTRUCTIONS TO VISIBILITY.


SDZ001>005-009-010-012>017-310800-
NORTHWEST AND NORTH CENTRAL SOUTH DAKOTA

CITY           SKY/WX    TMP DP  RH WIND       PRES   REMARKS
BUFFALO          N/A     61  58  90 W15       29.68S
FAITH            N/A     61  58  90 W15       29.70R
MOBRIDGE       CLOUDY    64  64 100 NE8       29.60F
$$

SDZ012>016-024>037-041>051-057-063-072>074-310800-
SOUTHWEST AND SOUTH CENTRAL SOUTH DAKOTA

CITY           SKY/WX    TMP DP  RH WIND       PRES   REMARKS
RAPID CTY ARPT MOCLDY    58  56  93 N6        29.77F
PIERRE         CLOUDY    70  64  81 S17       29.62S
CUSTER         PTCLDY    55  44  66 W5        29.90S
ELLSWORTH AFB  CLOUDY    62  59  91 N6        29.77F
PHILIP         CLOUDY    66  55  67 W14       29.71R
PINE RIDGE     MOCLDY    64  54  69 NE5       29.82R
WINNER         FAIR      74  64  71 S17G26    29.69F
$$

SDZ004>011-016>023-039-040-310800-
NORTHEAST SOUTH DAKOTA

CITY           SKY/WX    TMP DP  RH WIND       PRES   REMARKS
ABERDEEN       CLOUDY    63  58  83 SE12      29.68F
WATERTOWN      CLEAR     62  59  90 SE10      29.76F
SISSETON         N/A     61  61 100 S9        29.74F
$$

SDZ017-020-022-023-036>040-048>070-310800-
SOUTHEAST SOUTH DAKOTA

CITY           SKY/WX    TMP DP  RH WIND       PRES   REMARKS
SIOUX FALLS    CLEAR     65  59  81 SE9       29.80F
HURON          MOCLDY    66  60  81 SE14G22   29.67F
CHAMBERLAIN    CLOUDY    67  65  94 SE5       29.68F
MITCHELL       PTCLDY    67  62  84 SE15      29.72F
YANKTON        CLEAR     63  61  94 E6        29.77F
$$

ABBREVIATIONS USED IN REMARKS
   TC - TEMPERATURE IN CELSIUS
  WCI - WIND CHILL INDEX
   HX - HEAT INDEX
  VSB - VISIBILITY



USA.gov is the U.S. government's official web portal to all federal, state and local government web resources and services.